Location: Balaclava NSW 2575, Australia
(34.4510°S, 150.4953°E)
Time: 04:35:02
(UTC+10:00)

Envisat - Pass Details

Date: 22 May 2021
Orbit: 764 x 766 km, 98.1° (Epoch: 15 June)

Event Time Altitude Azimuth Distance (km) Brightness Sun altitude
Rises 05:44:53 0° 336° (NNW) 3,218 6.2 -13.3°
Reaches altitude 10° 05:47:49 10° 319° (NW) 2,302 5.2 -12.7°
Maximum altitude 05:51:23 19° 274° (W) 1,763 4.3 -12.0°
Enters shadow 05:53:34 15° 243° (WSW) 1,991 4.5 -11.6°
